Regional Weather Roundup
Issued by NWS Wakefield, VA

Home | Current Version | Previous Version | Graphics & Text | Print | Product List | Glossary On
Versions: 1 2 3 4 5 6 7 8 9 10 11 12 13 14 15 16 17 18 19 20 21 22 23 24 25 26 27 28 29 30 31 32 33 34 35 36 37 38 39 40 41 42 43 44 45 46 47 48 49 50
127
ASUS41 KAKQ 281915
RWRAKQ

REGIONAL WEATHER ROUNDUP
NATIONAL WEATHER SERVICE WAKEFIELD VA
300 PM EDT THU APR 28 2016

Note: "fair" indicates few or no clouds below 12,000 feet with no
significant weather and/or obstructions to visibility. * = Denotes
station may not report precipitation (e.g., rain,snow,etc.),
thunder or fog.

VAZ042-051-052>054-056-282000-
NORTHERN VIRGINIA

CITY           SKY/WX    TMP DP  RH WIND       PRES   REMARKS
WASH NATIONAL  DRIZZLE   55  52  89 E6        29.98F FOG
DULLES         DRIZZLE   51  49  92 NE7       29.98F FOG
FORT BELVOIR   CLOUDY    54  52  94 E3        29.98S FOG
QUANTICO       CLOUDY    55  52  89 E7        29.98F
FREDERICKSBRG* CLOUDY    56  56 100 NE5       29.95F FOG
STAFFORD*      CLOUDY    54  52  93 NE6       30.00F FOG
WARRENTON      CLOUDY    55  50  82 E7        29.95F HAZE
CULPEPER*      CLOUDY    56  54  95 E3        29.96F FOG
MANASSAS*      CLOUDY    55  54  94 SE5       29.98S
LEESBURG*      CLOUDY    52  52 100 E6        29.99F FOG
WINCHESTER     CLOUDY    52  50  93 E6        29.96S FOG
FRONT ROYAL*   CLOUDY    54  52  94 E8G16     29.93S
LURAY*         CLOUDY    55  55 100 N6        29.92S
$$

VAZ048-049-060>072-079>083-282000-
CENTRAL AND SOUTH CENTRAL VIRGINIA

CITY           SKY/WX    TMP DP  RH WIND       PRES   REMARKS
RICHMOND       CLOUDY    58  57  97 E5        29.93F FOG
CHESTERFIELD*  CLOUDY    61  48  63 NE5       29.94S
PETERSBURG*    CLOUDY    64  64 100 E5        29.93F
HANOVER        CLOUDY    58  55  90 E6        29.95F FOG
TAPPAHANNOCK*  CLOUDY    57  57  97 E9        29.95F
QUINTON*       CLOUDY    59  57  95 E10G17    29.93F
CHARLOTTSVILLE CLOUDY    59  55  87 NE9       29.92F
GORDONSVILLE*  CLOUDY    58  57  96 E5        29.93F
ORANGE*        CLOUDY    57  57 100 NE5       29.96F FOG
LOUISA*        CLOUDY    61  57  88 CALM      29.93S FOG
BUMPASS*       CLOUDY    56  55  97 E3        29.94F
FARMVILLE*     CLOUDY    63  63 100 NE6       29.90F FOG
CREWE*         CLOUDY    62  62 100 CALM      29.91S
FORT PICKETT*  NOT AVBL
CHASE CITY*    CLOUDY    66  65  94 NE5       29.90F
CLARKSVILLE*   CLOUDY    72  68  88 NE3       29.88F
SOUTH HILL*    CLOUDY    65  63  94 NE3       29.96S
LAWRENCEVILLE* CLOUDY    64  63  95 CALM      29.91S
EMPORIA*       CLOUDY    64  63  94 N5        29.91F
$$

VAZ088>098-282000-
SOUTHEAST VIRGINIA

CITY           SKY/WX    TMP DP  RH WIND       PRES   REMARKS
NORFOLK        LGT RAIN  59  57  93 E7        29.92F
VIRGINIA BEACH LGT RAIN  60  55  83 E9        29.92F FOG
NORFOLK NAVAL  CLOUDY    59  57  93 E9        29.93F FOG
WEST POINT*    CLOUDY    58  56  93 E6        29.95F
SALUDA*        CLOUDY    56  55  96 E7        29.95S
NEWPORT NEWS   CLOUDY    58  56  93 E10       29.94S
LANGLEY AFB    CLOUDY    57  55  94 E9        29.93F
FORT EUSTIS    CLOUDY    60  59  99 VRB7      29.92F
WILLIAMSBURG*  PTSUNNY   63  57  82 E5        29.94F
HR EXEC AP*    CLOUDY    64  63  94 E7        29.94F
FRANKLIN*      CLOUDY    64  60  87 NE3       29.92S
US460-WAKEFLD  CLOUDY    63  58  83 E6        29.92F
$$

VAZ020-022-025-037-045-282000-
WEST CENTRAL AND SOUTHWEST VIRGINIA

CITY           SKY/WX    TMP DP  RH WIND       PRES   REMARKS
STAUNTON*      CLOUDY    59  57  91 N16       29.93R
WAYNESBORO*    MOCLDY    61  55  81 MISG      29.89F
HOT SPRINGS VA PTSUNNY   72  55  54 W14G21    29.92F THUNDER
LYNCHBURG      CLOUDY    61  60  97 E6        29.91F FOG
DANVILLE       FAIR      79  66  64 VRB5      29.86F
SOUTH BOSTON*  CLOUDY    71  68  89 E3        29.88F
MARTINSVILLE   FAIR      79  62  56 SW6       29.88F
ROANOKE        FAIR      76  64  66 E18       29.87F
BLACKSBURG     FAIR      80  52  37 SW13G26   29.91F
DUBLIN*        FAIR      81  52  37 W18G26    29.90F
MARION*        FAIR      76  58  54 W18G26    29.95F
HILLSVILLE*    CLOUDY    73  59  62 S6        29.91F
RICHLANDS*     FAIR      74  38  27 W16G25    29.94F
WISE*          FAIR      73  48  40 SW18G24   29.96S
ABINGDON*      FAIR      78  57  48 W18G25    29.93S
$$

MDZ021>025-VAZ099-100-282000-
SOUTHERN MARYLAND AND THE DELMARVA PENINSULA

CITY           SKY/WX    TMP DP  RH WIND       PRES   REMARKS
PATUXENT RIVER DRIZZLE   53  51  93 E9        29.96F FOG
BAY BRIDGE APT NOT AVBL
LEONARDTOWN    CLOUDY    52  50  93 E3        29.98F
DOVER          CLOUDY    48  43  81 E18       30.00S
GEORGETOWN     CLOUDY    48  45  89 E9        30.00F
EASTON         CLOUDY   N/A N/A N/A E9        30.03F
CAMBRIDGE      CLOUDY    50  48  93 E10       29.98S
SALISBURY      CLOUDY    50  48  93 NE12      29.98F FOG
OCEAN CITY     LGT RAIN  50  48  93 NE12      29.99F FOG
WALLOPS ISLAND CLOUDY    53  51  93 NE17      29.97F FOG
ACCOMACK*      CLOUDY   N/A N/A N/A E10G16    29.96S HAZE
$$

NCZ012>017-030>032-282000-
NORTH CENTRAL AND EASTERN NORTH CAROLINA

CITY           SKY/WX    TMP DP  RH WIND       PRES   REMARKS
ROANOKE RAPIDS MOCLDY    73  66  78 CALM      29.88F
RALEIGH        MOSUNNY   83  67  58 SW9       29.87F
ELIZABETH CITY CLOUDY   N/A N/A N/A MISG      29.91F
AHOSKIE*       SUNNY     72  65  80 CALM      29.89F
EDENTON*       CLOUDY    71  66  84 E8        29.90F
CURRITUCK*     CLOUDY    62  61  95 E7        29.93F
KILL DEVIL HLS CLOUDY    67  59  75 NE6       29.91F
MANTEO         NOT AVBL
CAPE HATTERAS  MOSUNNY   75  68  78 SW12G18   29.92F
TARBORO*       FAIR      83  67  59 SW6       29.88F
GOLDSBORO      SUNNY     86  66  51 SW15      29.85F
WASHINGTON     CLOUDY    81  69  65 SW6       29.87F
GREENVILLE     PTSUNNY   82  68  61 SW8       29.89F
NEW BERN       CLOUDY    85  66  53 SW10      29.88F
WILMINGTON     CLOUDY    81  63  54 SW9       29.91F
$$

VAZ048-282000-
ELSEWHERE

CITY           SKY/WX    TMP DP  RH WIND       PRES   REMARKS
HARRISBURG PA  LGT RAIN  45  41  86 NE6       30.02F FOG
BALTIMORE      CLOUDY    50  43  77 E16       29.99F
ANNAPOLIS      CLOUDY    51  48  89 E14       29.99F
ANDREWS AFB    CLOUDY    54  52  94 E6        29.97F FOG
PHILADELPHIA   LGT RAIN  49  41  74 E10       30.04S
HENDERSON NC   MOSUNNY   79  66  65 S3        29.88F
GREENSBORO     PTSUNNY   82  64  54 SW7       29.86F
ROCKY MOUNT    CLOUDY    82  66  58 SW8       29.86F
$$

VAZ100-282000-
MARINE

STATION/POSITION TIME  TEMP    WIND        PRES    WAVE   SWELL
                       AIR SEA DIR/SP/G            HT/PER HT/PER
                 (UTC) (F)     (DEG/KT/KT) (MB)    (FT/S) (FT/S)
BRANDYWINE LGT   1800   47      90/ 13/ 15 1017.0R
CAPE MAY NJ      1800   47 58   70/  7/ 13 1016.8R
LEWES DE         1800   48 56  100/ 11/ 13 1016.7R
15NM E FENWICK I 1850   49 52              1015.4F   4/ 5
OCEAN-CITY-INLET 1800   49 54   80/ 10/ 13 1015.1F
WACHAPREAGUE VA  1800   53 61   70/ 13/ 17 1014.2F
THOMAS POINT MD  1900   51 58   90/ 15/ 17 1016.5F
GOOSES REEF MD   1900   54 58   90/ 10/ 12 1016.1F   1/ 3
COVE POINT MD    1800   52     130/ 11/ 14 1015.8F
SOLOMONS ISLAND  1800   53 62  100/ 11/ 12   N/A
BISHOPS HEAD MD  1800   53 59   70/ 11/ 14 1014.2F
POTOMAC MD       1900   54 59  110/ 12/ 14 1013.5F   1/ 3
CAMBRIDGE MD     1800   54 62   90/ 13/ 15 1014.6F
LEWISETTA VA     1800   54 61  110/ 12/ 15 1014.5F
RAPPAHANNOCK LGT 1800           70/ 15/ 18 1014.3F
STINGRAY PT      1900   56 62  100/  8/ 10 1014.5F   1/ 3
YORK RVR RNG VA  1800   56     110/ 14/ 16 1013.4F
YORKTOWN VA      1800   57 62  110/ 10/ 12 1013.9F
JAMESTOWN VA     1900   59 67   90/  6/ 10   N/A     0
DOMINION TERM VA 1800   56      70/ 12/ 14 1014.1F
KIPTOPEKE VA     1800      61  100/  6/ 14   N/A
CHES BAY BRIDGE  1800   54      70/ 15/ 17 1013.1F
CAPE HENRY VA    1800   54      80/ 12/ 13   N/A
CHESAPEAKE LGHT  1800   53      70/ 13/ 14 1014.5F
WILLOUBY STN VA  1800   55      90/ 13/ 14 1014.7F
CAPE HENRY BUOY  1812      57                N/A     3/ 6
CAPE CHARLES BUO 1826      56                N/A     3/ 5   2/ 5
OFFSHORE WE BUOY 1821      55                N/A     4/ 6   3/ 6
64NM E OF VA BCH 1850   56 56   60/  2/  2 1013.3F   3/ 6   3/ 6
DUCK PIER NC     1800   58 67   30/  8/  8 1013.4F
44100 DUCK FRF   1824      59                N/A     3/ 5
44056 DUCK FRF   1811      58                N/A     3/ 4
OREGON INLET NC  1800   71 64  200/ 10/ 13 1012.9F
HATTERAS NC      1800   73 68  210/  9/ 13 1013.2F
DIAMOND SHLS NC  1850   74 72  220/ 17/ 19 1013.1F   3/ 6   2/11
CAPE LOOKOUT NC  1800   73     220/ 10/ 12 1013.4F
$$




USA.gov is the U.S. government's official web portal to all federal, state and local government web resources and services.